This is the latest recevied weather packets stored in our database for station/object KBTL-WX. If no packets are shown the sender has not sent any weather packets the latest 10 day(s).
| Time | Temp. | Humidity | Pressure | Rain* | Wind** | Luminosity | Snow |
|---|---|---|---|---|---|---|---|
| 1777989642 | 10° C | 68% | 974.1 hPa | 0 mm | - | - | - |
| 1777988716 | 10.56° C | 70% | 973.7 hPa | 0 mm | - | - | - |
| 1777987834 | 10° C | 70% | 973.7 hPa | 0 mm | - | - | - |
| 1777986916 | 10° C | 70% | 973.6 hPa | 0 mm | - | - | - |
| 1777986040 | 9.44° C | 70% | 973.6 hPa | 0 mm | - | - | - |
| 1777985115 | 9.44° C | 65% | 972.6 hPa | 0 mm | - | - | - |
| 1777984234 | 9.44° C | 68% | 971.5 hPa | 0 mm | - | - | - |
| 1777983316 | 9.44° C | 68% | 971.5 hPa | 0 mm | - | - | - |
| 1777982443 | 10° C | 68% | 971.5 hPa | 0 mm | - | - | - |
| 1777981516 | 10° C | 67% | 971.5 hPa | 0 mm | - | - | - |
| 1777980631 | 9.44° C | 65% | 970.3 hPa | 0 mm | - | - | - |
| 1777979715 | 9.44° C | 65% | 970.3 hPa | 0 mm | - | - | - |
| 1777978842 | 9.44° C | 65% | 970.3 hPa | 0 mm | - | - | - |
| 1777977916 | 9.44° C | 72% | 969.2 hPa | 0 mm | - | - | - |
| 1777977031 | 10° C | 72% | 969.1 hPa | 0 mm | - | - | - |
| 1777976115 | 10° C | 72% | 969.1 hPa | 0 mm | - | - | - |
| 1777975242 | 9.44° C | 72% | 969.1 hPa | 0 mm | - | - | - |
| 1777974315 | 10° C | 69% | 969 hPa | 0 mm | - | - | - |
| 1777973436 | 10° C | 70% | 969 hPa | 0 mm | - | - | - |
| 1777972515 | 10.56° C | 70% | 969.1 hPa | 0 mm | - | - | - |
| 1777971643 | 11.11° C | 70% | 969.1 hPa | 0 mm | - | - | - |
| 1777970713 | 11.11° C | 83% | 969 hPa | 0 mm | - | - | - |
| 1777969833 | 12.22° C | 83% | 968 hPa | 0 mm | - | - | - |
| 1777968915 | 12.78° C | 83% | 968 hPa | 0 mm | - | - | - |
| 1777968039 | 12.78° C | 85% | 968.9 hPa | 0 mm | - | - | - |
* Rain latest hour (hover to see other rain measurements)
** Current wind speed in m/s (hover to see current wind gust speed)